Content
SEND FEEDBACK

Daily
Averages
Monthly
Summary
United States of America

STATEN ISLAND, NEW YORK


Home > North America > United States > New York
Elevation: 46 meters     Latitude: 40 35N     Longitude: 074 09W

WEATHER
 
SELECT A DAY
Number of Records: 193,870;   Date Range: 1/1/95 - 12/16/14
 
SHARE

PRINT THIS DATA

[ ← Previous Day ]
WEATHER ALMANAC - 1 MAY, 2013
[ Next Day → ]
[ °F ]   °C
Weather ElementAverageHighLow
Temperature13.3 °C17.8 °C (11:51 am)6.7 °C (5:51 am)
Dewpoint3.1 °C7 °C (7:36 pm)-3.9 °C (11:51 am)
Humidity52.2 %69 % (8:51 pm)23 % (11:51 am)
Barometer1030.5 hPa1032.5 hPa (9:51 pm)1027.8 hPa (1:51 am)
Wind Speed11.1 km/h20.4 km/h (3:51 pm)
Wind Gust31.5 km/h (1:51 pm)
Weather ElementAverage
Visibility16.1 km
Wind DirectionE (91.7 °)

Weather ElementTotal
Precipitation---
Heating Degree Days6.1 (Base 18.3)
Growing Degree Days2.3 (Base 10)
Averaged from 24 records on 1 May, 2013
WEATHER CONDITIONS BREAKOUT
WIND DIRECTION BREAKOUT
WEATHER BY HOUR - 1 MAY, 2013
[ °F ]   °C
Local TimeTemperatureDewpointHumidityBarometerVisibilityWind DirectionWind SpeedGust SpeedPrecipitationEventsConditions
1:51 AM11.7 °C-0.6 °C43 %1027.8 hPa16.1 kmCalmClear
2:51 AM9.4 °C0 °C52 %1027.8 hPa16.1 kmNorth (360°)5.6 km/hClear
3:51 AM7.2 °C0 °C60 %1028.1 hPa16.1 kmNNE (20°)11.1 km/hClear
4:51 AM7.8 °C0.6 °C61 %1028.4 hPa16.1 kmNNE (20°)13 km/hClear
5:51 AM6.7 °C0.6 °C65 %1029.1 hPa16.1 kmNorth (10°)11.1 km/hPartly Cloudy
6:51 AM8.9 °C1.7 °C61 %1029.8 hPa16.1 kmNNE (20°)13 km/hPartly Cloudy
7:51 AM12.2 °C1.1 °C47 %1030.5 hPa16.1 kmNNE (30°)9.3 km/hPartly Cloudy
8:51 AM13.9 °C0.6 °C40 %1030.8 hPa16.1 kmNE (40°)9.3 km/hPartly Cloudy
9:51 AM16.1 °C-1.7 °C30 %1030.8 hPa16.1 kmNE (40°)11.1 km/hPartly Cloudy
10:51 AM16.7 °C-3.3 °C25 %1031.2 hPa16.1 kmNE (50°)18.5 km/hPartly Cloudy
11:51 AM17.8 °C-3.9 °C23 %1030.8 hPa16.1 kmENE (70°)18.5 km/hClear
12:51 PM17.8 °C3.9 °C40 %1030.8 hPa16.1 kmSouth (170°)14.8 km/hPartly Cloudy
1:51 PM17.8 °C5.6 °C45 %1030.8 hPa16.1 kmESE (110°)16.7 km/h31.5 km/hScattered Clouds
2:51 PM17.2 °C6.1 °C48 %1030.5 hPa16.1 kmESE (120°)16.7 km/h31.5 km/hPartly Cloudy
3:51 PM16.7 °C6.1 °C50 %1030.8 hPa16.1 kmSE (140°)20.4 km/h31.5 km/hPartly Cloudy
4:51 PM17.2 °C6.1 °C48 %1030.8 hPa16.1 kmSE (140°)16.7 km/h31.5 km/hScattered Clouds
5:51 PM15.6 °C6.1 °C53 %1031.2 hPa16.1 kmSE (130°)14.8 km/h27.8 km/hScattered Clouds
6:51 PM15 °C6.1 °C55 %1031.5 hPa16.1 kmESE (110°)13 km/hPartly Cloudy
7:36 PM13 °C7 °C67 %1031.5 hPa16.1 kmSSE (160°)9.3 km/hPartly Cloudy
7:51 PM13.3 °C6.7 °C64 %1031.8 hPa16.1 kmSSE (160°)11.1 km/hPartly Cloudy
8:51 PM12.2 °C6.7 °C69 %1032.2 hPa16.1 kmSSE (150°)7.4 km/hPartly Cloudy
9:51 PM11.7 °C6.1 °C69 %1032.5 hPa16.1 kmSSE (150°)5.6 km/hClear
10:51 PM11.7 °C6.1 °C69 %1032.2 hPa16.1 kmCalmClear
11:51 PM11.1 °C5.6 °C69 %1032.2 hPa16.1 kmCalmClear
Hourly data recorded from KEWR, located 0 kilometers away from Staten Island, New York







STORIES FROM OUR PARTNERS